Maxwell AFB, AL

12:07 AM CST on February 22, 2018 (GMT -0600)
Maxwell Air Force Base

Weather History for KMXF - August, 2013

Change the Weather History Date:

Monday, August 26, 2013

  Actual Average Record
Temperature  
Mean Temperature 74 °F -  
Max Temperature 85 °F 89 °F 102 °F (1998)
Min Temperature 64 °F 71 °F 59 °F (2015)
Cooling Degree Days 10    
Growing Degree Days 24 (Base 50)    
Moisture  
Dew Point 64 °F    
Average Humidity 75    
Maximum Humidity 95    
Minimum Humidity 42    
Precipitation  
Precipitation 0.00 in - - ()
Sea Level Pressure  
Sea Level Pressure 30.21 in    
Wind  
Wind Speed 5 mph (NNE)    
Max Wind Speed 10 mph    
Max Gust Speed 18 mph    
Visibility 10 miles    
Events Rain    
Averages and records for this station are not official NWS values.
T = Trace of Precipitation, MM = Missing Value Source: NWS Daily Summary

Daily Weather History Graph

Daily Weather History Graph

Search for Another Location

Airport or City:

Trip Planner

Search our weather history database for the weather conditions in past years. The results will help you decide how hot, cold, wet, or windy it might be!

Date:

Astronomy

Aug. 26, 2013 Rise Set
Actual Time 6:16 AM CDT 7:16 PM CDT
Civil Twilight 5:51 AM CDT 7:42 PM CDT
Nautical Twilight 5:21 AM CDT 8:12 PM CDT
Astronomical Twilight 4:50 AM CDT 8:42 PM CDT
Moon 10:51 PM CDT (8/26) 11:54 AM CDT (8/26)
Length of Visible Light 13h 50m
Length of Day
13h 00m
Waning Gibbous, 66% of the Moon is Illuminated
Aug 26
Waning Gibbous
Aug 28
Last Quarter
Sep 5
New
Sep 12
First Quarter
Sep 19
Full

Hourly Weather History & Observations

Time (CDT) Temp. Heat Index Dew Point Humidity Pressure Visibility Wind Dir Wind Speed Gust Speed Precip Events Conditions
12:58 AM 72.0 °F - 65.7 °F 80% 30.25 in 10.0 mi ENE 8.1 mph - N/A   Clear
1:58 AM 72.0 °F - 63.7 °F 75% 30.24 in 10.0 mi ENE 4.6 mph - N/A   Clear
2:58 AM 69.6 °F - 63.9 °F 82% 30.25 in 10.0 mi ENE 4.6 mph - N/A   Clear
3:58 AM 66.9 °F - 63.7 °F 89% 30.25 in 10.0 mi North 3.5 mph - N/A   Clear
4:58 AM 66.9 °F - 62.8 °F 87% 30.24 in 10.0 mi NNE 3.5 mph - N/A   Clear
5:58 AM 64.9 °F - 62.6 °F 92% 30.25 in 10.0 mi NNE 2.3 mph - N/A   Clear
6:58 AM 65.8 °F - 63.0 °F 90% 30.25 in 10.0 mi NE 3.5 mph - N/A   Clear
7:58 AM 69.4 °F - 63.1 °F 80% 30.27 in 10.0 mi NE 5.8 mph - N/A   Clear
8:58 AM 74.5 °F - 62.4 °F 66% 30.28 in 10.0 mi ENE 8.1 mph - N/A   Clear
9:58 AM 77.5 °F - 62.6 °F 60% 30.29 in 10.0 mi Variable 4.6 mph - N/A   Clear
10:58 AM 80.8 °F 81.6 °F 61.2 °F 51% 30.28 in 10.0 mi East 10.4 mph - N/A   Clear
11:58 AM 82.4 °F 82.7 °F 60.1 °F 47% 30.27 in 10.0 mi ENE 10.4 mph - N/A   Clear
12:58 PM 83.3 °F 83.4 °F 59.9 °F 45% 30.26 in 10.0 mi Variable 5.8 mph 18.4 mph N/A   Clear
1:58 PM 83.7 °F 84.3 °F 61.9 °F 48% 30.23 in 10.0 mi East 8.1 mph - N/A   Clear
2:58 PM 84.6 °F 85.0 °F 61.7 °F 46% 30.20 in 10.0 mi NNW 2.3 mph - N/A   Clear
3:58 PM 85.1 °F 84.8 °F 59.4 °F 42% 30.18 in 10.0 mi NE 3.5 mph - N/A   Clear
4:58 PM 84.7 °F 85.0 °F 61.0 °F 45% 30.16 in 10.0 mi NNE 6.9 mph - N/A   Clear
5:58 PM 84.0 °F 84.5 °F 61.5 °F 47% 30.16 in 10.0 mi NE 5.8 mph - N/A   Clear
6:58 PM 80.8 °F 81.9 °F 62.2 °F 53% 30.15 in 10.0 mi ENE 4.6 mph - N/A   Clear
7:58 PM 72.3 °F - 66.7 °F 83% 30.16 in 10.0 mi Calm Calm - N/A   Clear
8:58 PM 71.2 °F - 67.3 °F 87% 30.17 in 10.0 mi NNE 4.6 mph - N/A   Clear
9:58 PM 70.3 °F - 67.6 °F 91% 30.17 in 10.0 mi NNW 3.5 mph - N/A   Clear
10:29 PM 68.0 °F - 66.2 °F 94% 30.16 in 10.0 mi Calm Calm - N/A Rain Light Rain
10:38 PM 68.0 °F - 66.2 °F 94% 30.16 in 9.0 mi North 1.2 mph - N/A   Clear
10:58 PM 68.5 °F - 66.2 °F 92% 30.17 in 10.0 mi NNW 1.2 mph - 0.00 in   Clear
11:04 PM 68.0 °F - 66.2 °F 94% 30.16 in 10.0 mi Calm Calm - N/A Rain Light Rain
11:11 PM 68.0 °F - 66.2 °F 94% 30.16 in 7.0 mi North 2.3 mph - N/A   Clear
11:13 PM 68.0 °F - 66.2 °F 94% 30.16 in 5.0 mi North 2.3 mph - N/A Rain Light Rain
11:14 PM 68.0 °F - 66.2 °F 94% 30.16 in 5.0 mi North 2.3 mph - N/A   Clear
11:58 PM 68.0 °F - 66.6 °F 95% 30.17 in 10.0 mi North 2.3 mph - 0.00 in   Clear